Terminal Aerodrome Forecast
Issued by NWS Cleveland, OH

Home | Current Version | Previous Version | Graphics & Text | Print | Product List | Glossary Off
Versions: 1 2 3 4 5 6 7 8 9 10 11 12 13 14 15 16 17 18 19 20 21 22 23 24 25 26

632
FTUS41 KCLE 271123
TAFCLE
TAF
KCLE 271123Z 2712/2818 20004KT P6SM BKN150
     FM271400 26005KT P6SM BKN090
     FM271700 33005KT P6SM SCT035 BKN090
     FM280000 03005KT P6SM BKN040
     FM280900 07005KT P6SM BKN035
     FM281300 06008KT P6SM BKN025=

USA.gov is the U.S. government's official web portal to all federal, state and local government web resources and services.